Flag for Brazil Weather past 2 weeks in Santarém, Pará, Brazil

Now
73 °F

Clear.


Feels Like: 70 °F
Forecast: 74 / 91 °F
Wind: No wind

Location: Santarem-Aeroporto

Current Time: Sep 3, 2015 at 6:27:24 AM

Latest Report: Sep 3, 2015 at 6:00 AM


Visibility: 10 mi

Pressure: 29.86 "Hg

Humidity: 94%

Dew point: 72 °F

Location of SantarémLocation

Historic Weather in Santarém — Graph

°F

Santarém temperature yesterday

Maximum temperature yesterday: 93 °F (at 5:00 PM)
Minimum temperature yesterday: 73 °F (at 4:00 AM)
Average temperature yesterday: 82 °F

Past Weeks' High & Low Weather Summary

 TemperatureHumidityPressure
High93 °F (Sep 2, 5:00 PM)100% (Aug 19, 5:00 AM)29.98 "Hg (Aug 19, 5:00 AM)
Low73 °F (Aug 19, 7:00 AM)47% (Sep 2, 5:00 PM)29.74 "Hg (Aug 24, 5:00 PM)
Average82 °F79%29.87 "Hg
* Reported Aug 19 5:00 AM — Sep 3 5:00 AM, Santarém, Weather by CustomWeather, © 2015

Note: Actual official high and low records may vary slightly from our data, if they occured in-between our weather recording intervals... More about our weather records

Advertising

Santarém weather history for previous 24 hours

 ConditionsComfort  
Time TempWeatherWind HumidityBarometerVisibility
5:00 AM
Thu, Sep 3
73 °FClear.3 mph94%29.86 "Hg10 mi
4:00 AM73 °FClear.No wind94%29.86 "Hg10 mi
3:00 AM73 °FClear.No wind94%29.86 "Hg10 mi
2:00 AM75 °FClear.1 mph89%29.86 "Hg10 mi
1:00 AM75 °FClear.2 mph89%29.89 "Hg10 mi
12:00 AM77 °FClear.5 mph89%29.92 "Hg10 mi
11:00 PM
Wed, Sep 2
79 °FPassing clouds.5 mph84%29.92 "HgN/A
10:00 PM79 °FPassing clouds.5 mph84%29.89 "HgN/A
9:00 PM77 °FPassing clouds.5 mph89%29.86 "HgN/A
8:00 PM77 °FPassing clouds.5 mph89%29.83 "HgN/A
7:00 PM81 °FPassing clouds.5 mph79%29.80 "HgN/A
6:00 PM88 °FPassing clouds.No wind62%29.80 "HgN/A
5:00 PM93 °FPassing clouds.5 mph47%29.80 "HgN/A
4:00 PM91 °FPassing clouds.6 mph56%29.83 "HgN/A
3:00 PM91 °FPassing clouds.8 mph59%29.83 "HgN/A
2:00 PM91 °FPassing clouds.7 mph59%29.89 "HgN/A
1:00 PM91 °FPassing clouds.9 mph63%29.92 "HgN/A
12:00 PM90 °FPassing clouds.8 mph67%29.92 "HgN/A
11:00 AM90 °FPassing clouds.9 mph67%29.95 "HgN/A
10:00 AM86 °FPassing clouds.9 mph75%29.95 "HgN/A
9:00 AM86 °FPassing clouds.3 mph79%29.95 "HgN/A
8:00 AM81 °FPassing clouds.No wind84%29.92 "HgN/A
7:00 AM73 °FPassing clouds.2 mph94%29.92 "HgN/A
6:00 AM73 °FPassing clouds.3 mph94%29.89 "HgN/A
Weather by CustomWeather, © 2015

See weather overviewHow to use our weather pages